EW4997 Weather Reports


time (UTC)temp
F
wind
direction
speed
knots
gust
knots
rain 1hr
in
rain 24hr
in
rain mn
in
humidity
%
barometer
mb
20260508203031 67 286 1.7 6.1 0.00 0.01 0.01 43 994.2
20260508201531 68 313 4.3 8.7 0.00 0.01 0.01 42 994.6
20260508200026 68 267 4.3 7.8 0.00 0.01 0.01 39 995.1
20260508194525 69 290 1.7 7.0 0.00 0.01 0.01 38 995.4
20260508193048 69 139 2.6 7.0 0.00 0.01 0.01 36 995.5
20260508191524 68 113 0.0 5.2 0.00 0.01 0.01 36 995.6
20260508190030 67 313 0.9 7.0 0.00 0.01 0.01 37 995.9
20260508184513 67 63 0.9 6.1 0.00 0.01 0.01 47 996.2
20260508183012 66 348 1.7 4.3 0.00 0.01 0.01 49 996.2
20260508181520 66 288 2.6 6.1 0.00 0.01 0.01 49 996.5
20260508180012 66 145 0.9 6.1 0.00 0.01 0.01 52 996.5
20260508174507 65 95 0.9 4.3 0.00 0.01 0.01 48 996.8
20260508173005 65 38 1.7 5.2 0.00 0.01 0.01 53 997.3
20260508171507 64 146 0.9 5.2 0.00 0.01 0.01 56 997.6
20260508164603 62 5 2.6 6.1 0.00 0.01 0.01 58 998.1
20260508163059 62 274 1.7 6.1 0.00 0.01 0.01 60 998.3
20260508161602 62 128 0.9 5.2 0.00 0.01 0.01 64 998.6
20260508160050 60 27 2.6 5.2 0.00 0.01 0.01 63 999.0
20260508154547 59 288 1.7 5.2 0.00 0.02 0.01 68 999.1
20260508153042 57 52 1.7 5.2 0.00 0.02 0.01 77 999.0
20260508151543 55 290 1.7 4.3 0.00 0.02 0.01 90 999.3
20260508150035 53 360 1.7 5.2 0.00 0.02 0.01 95 999.4
20260508144530 51 302 0.9 3.5 0.00 0.02 0.01 95 999.5
20260508143029 51 315 1.7 3.5 0.00 0.02 0.01 95 999.4
20260508141525 49 306 0.0 2.6 0.00 0.02 0.01 95 999.5
20260508140022 48 282 0.9 3.5 0.00 0.02 0.01 95 999.7
20260508134520 47 355 0.9 2.6 0.00 0.02 0.01 95 999.5
20260508133021 46 360 0.0 3.5 0.00 0.02 0.01 95 999.6
20260508131518 46 21 0.0 2.6 0.00 0.02 0.01 95 999.4
20260508130018 45 23 0.0 2.6 0.00 0.02 0.01 95 999.4
20260508124523 44 22 0.0 2.6 0.00 0.03 0.01 95 999.4
20260508123016 43 80 0.0 1.7 0.00 0.03 0.01 95 999.2
20260508121514 42 80 0.0 1.7 0.00 0.03 0.01 95 999.2
20260508120013 41 177 0.0 2.6 0.00 0.03 0.01 95 999.0
20260508114511 41 175 0.0 1.7 0.00 0.03 0.01 94 998.8
20260508113010 40 175 0.0 1.7 0.00 0.03 0.01 94 998.7
20260508111508 40 175 0.0 0.0 0.00 0.03 0.01 94 998.3
20260508110009 40 175 0.0 0.0 0.00 0.03 0.01 94 998.1
20260508104506 40 175 0.0 0.0 0.00 0.04 0.01 94 998.0
20260508103004 40 175 0.0 0.9 0.00 0.04 0.01 94 997.7
20260508101502 40 159 0.0 0.0 0.00 0.04 0.01 94 997.7
20260508100059 40 159 0.0 0.0 0.00 0.04 0.01 94 997.4
20260508094610 41 159 0.0 0.0 0.00 0.05 0.01 94 997.4
20260508093056 41 159 0.0 0.0 0.00 0.05 0.01 94 997.3
20260508091613 41 159 0.0 0.0 0.00 0.05 0.01 94 997.4
20260508090123 42 159 0.0 0.0 0.01 0.05 0.01 94 997.3
20260508084551 42 159 0.0 0.0 0.01 0.06 0.01 94 997.1
20260508083049 42 159 0.0 0.0 0.01 0.06 0.01 94 997.1
20260508081550 43 159 0.0 0.0 0.01 0.06 0.01 94 997.0
20260508080044 43 159 0.0 0.0 0.00 0.05 0.00 94 996.9
20260508074545 44 159 0.0 0.0 0.00 0.06 0.00 94 997.0
20260508073041 44 159 0.0 0.0 0.00 0.06 0.00 94 996.9
20260508071540 44 159 0.0 0.0 0.00 0.06 0.00 94 997.0
20260508070040 44 159 0.0 0.0 0.00 0.06 0.00 94 997.0
20260508064541 45 159 0.0 0.0 0.00 0.14 0.00 94 997.1
20260508063108 45 159 0.0 0.0 0.00 0.14 0.00 94 997.0
20260508061535 45 159 0.0 0.0 0.00 0.14 0.00 94 996.9
20260508060035 45 159 0.0 0.9 0.00 0.14 0.00 94 997.1
20260508054532 46 159 0.0 0.9 0.00 0.14 0.00 94 996.9
20260508053043 46 159 0.0 0.0 0.00 0.14 0.00 93 997.0
20260508051545 46 159 0.0 0.0 0.00 0.14 0.00 93 996.9
20260508050027 46 159 0.0 0.0 0.00 0.14 0.00 93 996.8
20260508044527 47 159 0.0 0.0 0.00 0.14 0.00 93 996.6
20260508043026 47 159 0.0 0.0 0.00 0.14 0.00 93 996.3
20260508041522 47 159 0.0 0.0 0.00 0.14 0.00 93 996.3
20260508040019 48 159 0.0 0.9 0.00 0.14 0.00 93 996.2
20260508034525 48 159 0.0 0.0 0.00 0.14 0.14 93 996.2
20260508033024 48 159 0.0 1.7 0.00 0.14 0.14 92 996.1
20260508031517 49 159 0.0 0.9 0.00 0.14 0.14 92 996.2
20260508030017 49 159 0.0 0.0 0.00 0.14 0.14 92 995.9
20260508024519 49 159 0.0 0.0 0.00 0.14 0.14 92 995.7
20260508023008 50 159 0.0 0.0 0.00 0.14 0.14 92 995.4
20260508021507 50 159 0.0 0.0 0.00 0.14 0.14 92 995.4
20260508020004 50 159 0.0 0.9 0.00 0.14 0.14 91 995.2
20260508014508 51 159 0.0 0.9 0.00 0.17 0.14 91 994.9
20260508013001 51 159 0.0 1.7 0.00 0.17 0.14 91 994.7
20260508011600 52 161 0.0 1.7 0.00 0.17 0.14 89 994.4
20260508010121 53 161 0.0 0.0 0.00 0.17 0.14 88 994.4
20260508004557 53 161 0.0 1.7 0.00 0.24 0.14 87 994.0
20260508003104 54 161 0.0 1.7 0.00 0.24 0.14 87 993.8
20260508001600 55 161 0.9 1.7 0.00 0.24 0.14 85 993.8
20260508000056 56 152 0.0 1.7 0.00 0.24 0.14 84 993.8
20260507234556 57 167 0.0 3.5 0.00 0.25 0.14 82 993.8
20260507233055 57 134 0.9 3.5 0.00 0.25 0.14 82 993.8
20260507231557 58 169 0.9 3.5 0.00 0.25 0.14 80 993.9
20260507230110 58 131 0.9 2.6 0.00 0.25 0.14 80 993.8
20260507224554 58 192 0.0 3.5 0.00 0.25 0.14 83 993.9
20260507223152 57 129 0.0 0.9 0.00 0.25 0.14 83 993.8
20260507221553 57 129 0.0 3.5 0.00 0.25 0.14 82 993.7
20260507220052 57 153 0.0 2.6 0.00 0.25 0.14 81 993.5
20260507214557 57 153 0.0 2.6 0.00 0.25 0.14 81 993.5
20260507213116 57 148 0.0 1.7 0.00 0.25 0.14 81 993.3
20260507211551 57 178 1.7 3.5 0.00 0.25 0.14 81 993.3
20260507210055 57 148 0.0 2.6 0.00 0.25 0.14 81 993.3
20260507204550 56 313 0.9 3.5 0.00 0.25 0.14 82 993.3